DateTimeUTC,F1_A11,F1_S11,BsB_S11,BsG_S11,BsR_S11,BbsB_S11,BbsG_S11,BbsR_S11,BaB_A11,BaG_A11,BaR_A11,Tu_S11,T_S11,Uu_S11,U_S11,P_S11,T1_A11
2021-03-18T01:00:00Z,00040200,20000000,,,,,,,-000.82,-000.59,-000.37,17.9,24.8,05.6,03.7,0649.6,31.0
2021-03-18T01:01:00Z,00040200,20000000,,,,,,,0000.14,0000.11,-000.04,17.9,24.8,05.6,03.7,0649.6,31.0
2021-03-18T01:02:00Z,00040200,20000000,,,,,,,-000.26,-000.17,-000.17,17.9,24.8,05.4,03.5,0649.5,31.0
2021-03-18T01:03:00Z,00040200,60000000,,,,,,,-000.59,-000.56,-000.16,17.9,24.8,05.3,03.5,0649.5,31.0
2021-03-18T01:04:00Z,00040200,40000000,-000.64,0000.43,0000.08,0000.05,-000.07,0000.24,-000.18,0000.03,0000.00,18.0,24.6,05.1,03.4,0650.5,31.0
2021-03-18T01:05:00Z,00040200,00000000,-000.34,0000.19,0000.01,0000.05,-000.04,0000.37,-000.02,-000.49,-000.20,18.0,24.6,05.1,03.4,0650.6,31.0
2021-03-18T01:06:00Z,00040200,00000000,0000.33,0000.25,0000.23,-000.17,0000.10,0000.14,-000.13,0000.33,0000.02,18.0,24.6,05.1,03.4,0650.5,31.0
2021-03-18T01:07:00Z,00040200,00000000,-000.10,0000.15,0000.02,-000.19,0000.20,0000.16,-000.09,-000.14,0000.15,18.0,24.6,05.0,03.4,0650.6,31.0
2021-03-18T01:08:00Z,00040200,00000000,0000.15,-000.15,0000.10,0000.12,-000.13,0000.14,-000.43,0000.20,-000.45,18.0,24.6,05.0,03.3,0650.7,31.0
2021-03-18T01:09:00Z,00040200,00000000,0000.07,0000.18,0000.42,0000.15,0000.10,0000.30,-000.16,-000.32,-000.03,18.0,24.6,05.0,03.3,0650.7,31.0
2021-03-18T01:10:00Z,00040200,00000000,-000.05,0000.03,0000.31,0000.31,-000.01,0000.19,0000.13,-000.42,0000.03,18.0,24.6,04.9,03.3,0650.7,31.0
2021-03-18T01:11:00Z,00040200,00000000,0000.11,-000.24,0000.02,0000.18,0000.00,0000.42,0000.01,-000.07,-000.25,18.0,24.6,04.9,03.2,0650.8,31.0
2021-03-18T01:12:00Z,00040200,00000000,0000.03,-000.10,0000.13,-000.01,0000.18,-000.03,-000.32,0000.14,0000.08,18.0,24.6,04.9,03.2,0650.8,31.0
2021-03-18T01:13:00Z,00040200,00000000,0000.19,-000.03,-000.02,-000.28,0000.04,-000.10,0000.06,-000.25,0000.10,17.9,24.6,04.9,03.2,0650.8,31.0
2021-03-18T01:14:00Z,00040200,00000000,0000.59,-000.01,-000.21,0000.60,0000.16,0000.10,-000.07,-000.03,0000.16,17.9,24.6,04.8,03.2,0650.7,31.0
2021-03-18T01:15:00Z,00040200,00000000,-000.60,0000.17,-000.19,0000.09,0000.02,-000.03,-000.09,0000.19,-000.34,18.0,24.6,04.7,03.1,0650.7,31.0
2021-03-18T01:16:00Z,00040200,00000000,-000.44,-000.09,0000.18,0000.07,-000.06,0000.22,-000.01,-000.16,0000.24,17.9,24.6,04.7,03.2,0650.7,31.0
2021-03-18T01:17:00Z,00040200,00000000,-000.17,-000.02,-000.11,0000.14,-000.03,0000.00,-000.15,-000.42,-000.27,17.9,24.5,04.6,03.1,0650.8,31.0
2021-03-18T01:18:00Z,00040200,00000000,0000.45,0000.31,-000.08,-000.27,-000.18,0000.02,-000.43,0000.08,-000.31,18.0,24.5,04.6,03.1,0650.8,31.0
2021-03-18T01:19:00Z,00040200,00000000,0000.08,0000.04,0000.02,-000.18,0000.04,-000.03,0000.09,-000.33,-000.08,17.9,24.5,04.5,03.0,0650.8,31.0
2021-03-18T01:20:00Z,00040200,00000000,-000.10,0000.28,-000.12,0000.24,0000.10,0000.15,-000.01,-000.08,-000.00,17.9,24.5,04.4,02.9,0650.7,31.0
2021-03-18T01:21:00Z,00040200,00000000,-000.62,0000.11,0000.10,-000.07,0000.04,0000.15,-000.38,0000.24,-000.05,17.9,24.5,04.4,03.0,0650.8,31.0
2021-03-18T01:22:00Z,00040200,00000000,-000.45,0000.29,0000.10,-000.07,0000.08,0000.03,0000.30,0000.02,0000.39,17.9,24.5,04.5,03.0,0650.8,31.0
2021-03-18T01:23:00Z,00040200,00000000,0000.02,0000.27,-000.10,0000.11,-000.04,0000.08,-000.54,-000.07,-000.16,17.9,24.5,04.3,02.9,0650.8,31.0
2021-03-18T01:24:00Z,00040200,00000000,-000.18,0000.16,0000.23,0000.51,0000.06,0000.20,0000.43,-000.20,-000.41,17.9,24.5,04.4,03.0,0650.7,31.0
2021-03-18T01:25:00Z,00040200,00000000,-000.03,0000.07,0000.20,0000.62,0000.01,0000.18,-000.45,-000.16,0000.17,17.9,24.5,04.4,02.9,0650.7,31.0
2021-03-18T01:26:00Z,00040200,00000000,0000.28,0000.04,-000.15,0000.21,0000.09,0000.22,0000.05,-000.08,0000.08,17.9,24.5,04.4,02.9,0650.7,31.0
2021-03-18T01:27:00Z,00040200,00000000,-000.67,0000.05,-000.03,0000.45,-000.09,-000.23,0000.15,0000.16,-000.26,17.9,24.5,04.3,02.9,0650.7,31.0
2021-03-18T01:28:00Z,00040200,00000000,-000.47,0000.04,0000.02,-000.12,0000.02,0000.08,-000.20,-000.41,-000.34,17.9,24.5,04.2,02.8,0650.7,31.0
2021-03-18T01:29:00Z,00040200,00000000,-000.59,-000.01,0000.10,-000.19,-000.16,0000.15,-000.23,0000.04,0000.27,17.9,24.5,04.3,02.9,0650.8,31.0
2021-03-18T01:30:00Z,00040200,00000000,0000.12,-000.32,-000.07,-000.02,0000.14,-000.26,0000.10,0000.18,-000.11,17.9,24.5,04.0,02.7,0650.8,31.0
2021-03-18T01:31:00Z,00040200,00000000,0000.28,-000.17,0000.10,-000.19,-000.20,0000.03,-000.24,-000.16,0000.21,17.9,24.5,04.0,02.7,0650.7,31.0
2021-03-18T01:32:00Z,00040200,00000000,-000.35,-000.06,0000.04,-000.18,-000.05,0000.19,-000.09,0000.30,-000.32,17.9,24.5,04.0,02.7,0650.8,31.0
2021-03-18T01:33:00Z,00040200,00000000,0000.55,0000.12,0000.03,0000.25,-000.21,0000.25,0000.06,-000.36,0000.46,17.9,24.5,04.1,02.7,0650.7,31.0
2021-03-18T01:34:00Z,00040200,00000000,0000.07,0000.42,0000.12,0000.13,-000.07,0000.18,0000.16,0000.20,-000.31,17.9,24.5,04.1,02.8,0650.6,31.0
2021-03-18T01:35:00Z,00040200,00000000,0000.13,0000.27,0000.30,0000.17,-000.01,0000.22,-000.25,-000.21,-000.22,17.9,24.5,04.1,02.7,0650.7,31.0
2021-03-18T01:36:00Z,00040200,00000000,-000.17,0000.07,-000.02,0000.15,-000.10,0000.01,0000.09,-000.05,0000.20,17.9,24.5,04.0,02.7,0650.7,31.0
2021-03-18T01:37:00Z,00040200,00000000,0000.15,-000.08,0000.04,0000.54,-000.03,-000.18,-000.09,-000.04,0000.12,17.9,24.5,04.0,02.7,0650.6,30.9
2021-03-18T01:38:00Z,00040200,00000000,-000.46,0000.29,0000.20,-000.01,0000.00,-000.02,-000.45,-000.28,-000.17,17.9,24.5,03.9,02.6,0650.6,31.0
2021-03-18T01:39:00Z,00040200,00000000,-000.14,-000.08,-000.09,-000.21,0000.13,0000.09,0000.37,-000.08,-000.11,17.9,24.5,03.9,02.6,0650.7,31.0
2021-03-18T01:40:00Z,00040200,00000000,0000.24,0000.24,0000.05,-000.40,0000.09,0000.09,-000.20,-000.18,0000.23,17.9,24.5,03.8,02.6,0650.6,31.0
2021-03-18T01:41:00Z,00040200,00000000,-000.22,-000.04,0000.15,0000.13,-000.04,0000.06,-000.10,0000.10,-000.42,17.9,24.5,03.8,02.6,0650.6,31.0
2021-03-18T01:42:00Z,00040200,00000000,0000.27,-000.12,0000.16,0000.19,-000.20,-000.01,-000.00,0000.13,-000.21,17.9,24.5,03.7,02.5,0650.6,31.0
2021-03-18T01:43:00Z,00040200,00000000,-000.28,0000.12,0000.07,0000.73,0000.09,-000.10,-000.45,-000.70,-000.18,17.9,24.5,03.7,02.5,0650.6,31.0
2021-03-18T01:44:00Z,00040200,00000000,-000.28,0000.17,0000.14,0000.04,0000.07,-000.07,-000.06,0000.42,-000.09,17.9,24.5,03.7,02.4,0650.6,31.0
2021-03-18T01:45:00Z,00040200,00000000,0000.23,0000.00,0000.08,0000.53,0000.11,0000.34,0000.09,-000.27,0000.10,17.9,24.5,03.6,02.4,0650.7,30.9
2021-03-18T01:46:00Z,00040200,00000000,0000.18,0000.06,0000.01,0000.24,-000.04,0000.14,-000.15,-000.00,-000.03,17.9,24.5,03.5,02.3,0650.7,30.9
2021-03-18T01:47:00Z,00040200,00000000,-000.05,0000.04,-000.22,-000.24,0000.15,-000.02,-000.68,-000.47,0000.15,17.8,24.5,03.5,02.3,0650.7,31.0
2021-03-18T01:48:00Z,00040200,00000000,-000.36,0000.04,0000.07,-000.08,-000.02,0000.21,-000.12,-000.04,-000.43,17.9,24.5,03.5,02.3,0650.7,31.0
2021-03-18T01:49:00Z,00040200,00000000,0000.69,-000.12,-000.23,0000.25,-000.09,-000.13,0000.49,0000.21,0000.41,17.8,24.4,03.5,02.3,0650.7,31.0
2021-03-18T01:50:00Z,00040200,00000000,-000.04,-000.11,0000.17,0000.17,0000.22,0000.36,-000.32,-000.37,-000.59,17.8,24.4,03.4,02.2,0650.7,31.0
2021-03-18T01:51:00Z,00040200,00000000,-000.37,-000.03,0000.19,-000.27,0000.05,0000.12,0000.32,0000.20,0000.44,17.8,24.4,03.4,02.3,0650.8,30.9
2021-03-18T01:52:00Z,00040200,00000000,0000.03,-000.10,0000.04,0000.44,-000.15,0000.24,0000.05,0000.15,0000.03,17.8,24.4,03.4,02.2,0650.7,30.9
2021-03-18T01:53:00Z,00040200,00000000,-000.26,0000.00,-000.12,-000.24,-000.05,-000.14,-000.57,-000.51,-000.07,17.8,24.4,03.4,02.2,0650.7,30.9
2021-03-18T01:54:00Z,00040200,00000000,0000.14,0000.03,0000.01,-000.09,-000.14,-000.06,0000.33,0000.00,0000.08,17.8,24.4,03.3,02.2,0650.8,30.9
2021-03-18T01:55:00Z,00040200,00000000,-000.37,0000.06,0000.26,0000.04,0000.01,-000.06,-000.44,-000.26,-000.65,17.8,24.4,03.3,02.2,0650.7,30.9
2021-03-18T01:56:00Z,00040200,00000000,-000.34,0000.16,-000.00,0000.05,0000.09,-000.03,0000.18,0000.49,0000.03,17.8,24.4,03.3,02.2,0650.7,31.0
2021-03-18T01:57:00Z,00040200,40000000,,,,,,,0001.45,0001.25,0001.56,17.8,24.5,03.2,02.1,0650.7,30.9
2021-03-18T01:58:00Z,00040200,60000000,,,,,,,-000.92,-000.90,-000.83,17.6,24.5,03.4,02.2,0649.9,30.9
2021-03-18T01:59:00Z,00040200,20000000,,,,,,,-000.44,-000.38,0000.15,17.6,24.6,03.2,02.1,0649.8,30.9
